Powrót do katalogu

ARIANE 44LP DEB

SPELDA

AktywnyHEO
NORAD 26471·DEBRIS·🇫🇷 France

Wystrzelony Aug 17, 2000 z Guiana Space Centre

Loading…

Następne Przeloty (najbliższe 24 godziny)

TLE

ŚwieżeSource: Space-Track

Epoka: Sep 14, 2026, 17:34 UTC

1 26471U 00046C   26257.73243624  .00000202  00000-0  79363-3 0  9998
2 26471   3.5149  94.3899 5493221 209.5298 103.3252  4.53347814356882

Śledź ARIANE 44LP DEB w czasie rzeczywistym z AllMySat

Download on the App Store